Ostrava, Czech Republic

5:50 AM CET on December 08, 2016 (GMT +0100)
Ostrava

Weather History for LKMT - December, 2012

Change the Weather History Date:

Wednesday, December 19, 2012

  Actual Average Record
Temperature  
Mean Temperature 34 °F -  
Max Temperature 36 °F 34 °F - ()
Min Temperature 32 °F 23 °F - ()
Degree Days  
Heating Degree Days 31    
Moisture  
Dew Point 34 °F    
Average Humidity 95    
Maximum Humidity 100    
Minimum Humidity 87    
Precipitation  
Precipitation 0.04 in 0.04 in - ()
Sea Level Pressure  
Sea Level Pressure 30.16 in    
Wind  
Wind Speed 4 mph ()    
Max Wind Speed 10 mph    
Max Gust Speed -    
Visibility 2.0 miles    
Events Rain , Snow    
T = Trace of Precipitation, MM = Missing Value Source: Averaged Metar Reports

Daily Weather History Graph

Daily Weather History Graph

Search for Another Location

Airport or City:

Trip Planner

Search our weather history database for the weather conditions in past years. The results will help you decide how hot, cold, wet, or windy it might be!

Date:

Astronomy

Dec. 19, 2012 Rise Set
Actual Time 7:41 AM CET 3:48 PM CET
Civil Twilight 7:02 AM CET 4:26 PM CET
Nautical Twilight 6:21 AM CET 5:07 PM CET
Astronomical Twilight 5:42 AM CET 5:47 PM CET
Moon 11:05 AM CET (12/19) 11:37 PM CET (12/19)
Length of Visible Light 9h 23m
Length of Day
8h 07m
Waxing Crescent, 42% of the Moon is Illuminated
Dec 19
Waxing Crescent
Dec 20
First Quarter
Dec 28
Full
Jan 5
Last Quarter
Jan 11
New

Hourly Weather History & Observations

Time (CET) Temp. Windchill Dew Point Humidity Pressure Visibility Wind Dir Wind Speed Gust Speed Precip Events Conditions
12:00 AM 35.6 °F - 33.8 °F 93% 30.04 in 3.7 mi South 2.3 mph - N/A   Overcast
12:30 AM 35.6 °F 32.8 °F 33.8 °F 93% 30.04 in 3.7 mi SW 3.5 mph - N/A   Overcast
1:00 AM 36 °F - 34 °F 91% 30.09 in 4 mi 2.2 mph - -   Mist
1:00 AM 35.6 °F - 33.8 °F 93% 30.04 in 3.7 mi Variable 1.2 mph - N/A   Overcast
1:30 AM 35.6 °F 32.8 °F 33.8 °F 93% 30.06 in 3.7 mi SW 3.5 mph - N/A   Overcast
2:00 AM 35.6 °F - 33.8 °F 93% 30.06 in 3.7 mi SSW 2.3 mph - N/A   Overcast
2:30 AM 35.6 °F - 33.8 °F 93% 30.06 in 3.7 mi SSW 1.2 mph - N/A   Mostly Cloudy
3:00 AM 35.6 °F - 33.8 °F 93% 30.06 in 3.1 mi Variable 1.2 mph - N/A   Scattered Clouds
3:30 AM 33.8 °F - 33.8 °F 100% 30.06 in 2.8 mi Variable 1.2 mph - N/A   Partly Cloudy
4:00 AM 33.8 °F - 33.8 °F 100% 30.06 in 2.5 mi ENE 2.3 mph - N/A   Scattered Clouds
4:30 AM 33.8 °F - 33.8 °F 100% 30.06 in 2.5 mi NE 1.2 mph - N/A   Overcast
5:00 AM 33.8 °F - 33.8 °F 100% 30.06 in 2.2 mi NNW 2.3 mph - N/A   Overcast
5:30 AM 35.6 °F 31.7 °F 33.8 °F 93% 30.09 in 2.2 mi North 4.6 mph - N/A   Overcast
6:00 AM 35.6 °F 30.7 °F 33.8 °F 93% 30.09 in 2.2 mi NNE 5.8 mph - N/A   Overcast
6:17 AM 35.6 °F 30.7 °F 33.8 °F 93% 30.09 in 2.2 mi NE 5.8 mph - N/A Rain Light Rain
6:30 AM 35.6 °F 30.7 °F 33.8 °F 93% 30.09 in 2.5 mi NE 5.8 mph - N/A Rain Light Rain
7:00 AM 35 °F - 34 °F 95% 30.16 in 2 mi NE 4.5 mph - - Rain Light Rain
7:00 AM 35.6 °F 31.7 °F 33.8 °F 93% 30.09 in 2.5 mi NE 4.6 mph - N/A Rain Light Rain
7:30 AM 35.6 °F 30.7 °F 33.8 °F 93% 30.12 in 1.9 mi NNE 5.8 mph - N/A Rain Light Rain
8:00 AM 35.6 °F 30.7 °F 33.8 °F 93% 30.12 in 1.2 mi NNE 5.8 mph - N/A Rain Light Rain
8:30 AM 35.6 °F 30.7 °F 33.8 °F 93% 30.12 in 1.0 mi NNE 5.8 mph - N/A Rain Light Rain
9:00 AM 35.6 °F 29.9 °F 33.8 °F 93% 30.15 in 0.9 mi NNE 6.9 mph - N/A Rain Light Rain
9:30 AM 35.6 °F 30.7 °F 33.8 °F 93% 30.15 in 0.9 mi North 5.8 mph - N/A Rain Light Rain
10:00 AM 35.6 °F 29.2 °F 33.8 °F 93% 30.15 in 0.9 mi North 8.1 mph - N/A Rain Light Rain
10:30 AM 35.6 °F 30.7 °F 33.8 °F 93% 30.15 in 0.9 mi NNE 5.8 mph - N/A Rain Light Rain
11:00 AM 35.6 °F 29.9 °F 35.6 °F 100% 30.15 in 0.9 mi NNE 6.9 mph - N/A Rain Light Rain
11:30 AM 35.6 °F 29.9 °F 35.6 °F 100% 30.15 in 0.9 mi NNE 6.9 mph - N/A Rain Light Rain
12:00 PM 35.6 °F 28.6 °F 35.6 °F 100% 30.15 in 0.9 mi NNE 9.2 mph - N/A Rain Light Rain
12:30 PM 35.6 °F 29.2 °F 35.6 °F 100% 30.15 in 0.9 mi NNE 8.1 mph - N/A Rain Light Rain
1:00 PM 36 °F - 35 °F 93% 30.22 in 1 mi NNE 6.7 mph - - Rain Light Rain
1:00 PM 35.6 °F 29.2 °F 35.6 °F 100% 30.18 in 0.9 mi NNE 8.1 mph - N/A Rain Light Rain
1:30 PM 35.6 °F 29.2 °F 35.6 °F 100% 30.18 in 0.9 mi NNE 8.1 mph - N/A Rain Light Rain
2:00 PM 35.6 °F 29.2 °F 35.6 °F 100% 30.18 in 0.9 mi NNE 8.1 mph - N/A Rain Light Rain
2:30 PM 35.6 °F 29.2 °F 35.6 °F 100% 30.18 in 0.9 mi NNE 8.1 mph - N/A Rain Light Rain
3:00 PM 35.6 °F 29.2 °F 35.6 °F 100% 30.18 in 0.9 mi NNE 8.1 mph - N/A Rain Light Rain
3:30 PM 35.6 °F 30.7 °F 33.8 °F 93% 30.21 in 1.2 mi ENE 5.8 mph - N/A Rain Light Rain
4:00 PM 35.6 °F 29.9 °F 33.8 °F 93% 30.21 in 1.2 mi East 6.9 mph - N/A Rain Light Rain
4:30 PM 33.8 °F 28.6 °F 33.8 °F 100% 30.21 in 1.6 mi ENE 5.8 mph - N/A Rain Light Rain
5:00 PM 33.8 °F 27.7 °F 32.0 °F 93% 30.21 in 1.6 mi ENE 6.9 mph - N/A Rain , Snow Light Rain
5:30 PM 33.8 °F 27.0 °F 32.0 °F 93% 30.21 in 1.6 mi ENE 8.1 mph - N/A Rain Light Rain
6:00 PM 33.8 °F 27.7 °F 32.0 °F 93% 30.24 in 2.2 mi ENE 6.9 mph - N/A   Mostly Cloudy
6:30 PM 33.8 °F 28.6 °F 32.0 °F 93% 30.24 in 1.7 mi ENE 5.8 mph - N/A   Mostly Cloudy
7:00 PM 33 °F - 32 °F 94% 30.30 in 2 mi NE 8.9 mph - -   Mist
7:00 PM 33.8 °F 25.8 °F 32.0 °F 93% 30.24 in - NE 10.4 mph - N/A   Overcast
7:30 PM 33.8 °F 27.0 °F 32.0 °F 93% 30.24 in 2.5 mi NE 8.1 mph - N/A   Overcast
8:00 PM 33.8 °F 27.7 °F 32.0 °F 93% 30.24 in - ENE 6.9 mph - N/A   Overcast
8:30 PM 33.8 °F 27.0 °F 32.0 °F 93% 30.24 in 2.2 mi ENE 8.1 mph - N/A   Overcast
9:00 PM 33.8 °F 28.6 °F 32.0 °F 93% 30.24 in - ENE 5.8 mph - N/A   Overcast
9:30 PM 33.8 °F 28.6 °F 32.0 °F 93% 30.24 in - NE 5.8 mph - N/A   Overcast
10:00 PM 32.0 °F 26.4 °F 32.0 °F 100% 30.24 in - NNE 5.8 mph - N/A   Overcast
10:30 PM 32.0 °F 27.5 °F 32.0 °F 100% 30.27 in - NE 4.6 mph - N/A   Overcast
11:00 PM 33.8 °F 28.6 °F 32.0 °F 93% 30.27 in 2.8 mi ENE 5.8 mph - N/A   Overcast
11:30 PM 33.8 °F 28.6 °F 30.2 °F 87% 30.27 in - NE 5.8 mph - N/A   Overcast